Regional Weather Roundup
Issued by NWS

Home | Current Version | Previous Version | Text Only | Print | Product List | Glossary On
Versions: 1 2 3 4 5 6 7 8 9 10 11 12 13 14 15 16 17 18 19 20 21 22 23 24 25 26 27 28 29 30 31 32 33 34 35 36 37 38 39 40 41 42 43 44 45 46 47 48 49 50
000
ASUS45 KPSR 211710
RWRAZ

ARIZONA HOURLY REGIONAL WEATHER ROUNDUP
NATIONAL WEATHER SERVICE PHOENIX AZ
1000 AM MST SAT OCT 21 2017

NOTE: FAIR INDICATES FEW OR NO CLOUDS BELOW 12,000 FEET WITH NO
SIGNIFICANT WEATHER AND/OR OBSTRUCTIONS TO VISIBILITY.

AZZ001>003-036-211800-
NORTHWEST ARIZONA

CITY           SKY/WX    TMP DP  RH WIND       PRES   REMARKS
BULLHEAD CITY  SUNNY     70  18  13 N24G36    30.08R
KINGMAN        SUNNY     62  17  17 N12       30.17R
$$

AZZ004>008-015-016-018-211800-
NORTH CENTRAL ARIZONA

CITY           SKY/WX    TMP DP  RH WIND       PRES   REMARKS
GRAND CANYON   SUNNY     51  10  19 CALM      30.19R
WILLIAMS       SUNNY     52  10  19 NW9       30.19S
PRESCOTT       SUNNY     59  21  23 N12       30.16R
FLAGSTAFF      SUNNY     53  10  18 NW10G17   30.18R
PAYSON         SUNNY     61  36  39 CALM      30.14R
PAGE           SUNNY     54  18  24 CALM      30.19R
$$

AZZ009>014-017-211800-
NORTHEAST ARIZONA

CITY           SKY/WX    TMP DP  RH WIND       PRES   REMARKS
WINSLOW        SUNNY     59  23  25 NW10      30.16R
SAINT JOHNS    SUNNY     58  39  49 NW13      30.13R
WINDOW ROCK    SUNNY     53  19  26 N8        30.15R
SHOW LOW       SUNNY     55  34  44 NW8G15    30.18R
$$

AZZ540-542>544-546-548-211800-
GREATER PHOENIX AREA

CITY           SKY/WX    TMP DP  RH WIND       PRES   REMARKS
PHOENIX        MOSUNNY   71  47  42 VRB5      29.99R
BUCKEYE        SUNNY     68  66  94 S5        30.01S
GLENDALE       MOSUNNY   72  46  40 CALM      30.01R
LUKE AFB       SUNNY     71  46  40 CALM      29.99R
DEER VALLEY    CLOUDY    70  45  40 CALM      30.00R
SCOTTSDALE     SUNNY     70  45  40 CALM      30.02R
MESA-FALCON    SUNNY     70  46  43 NW3       30.02R
MESA-GATEWAY   MOSUNNY   70  45  40 CALM      30.02R
CHANDLER       SUNNY     70  46  43 CALM      30.01R
$$

AZZ539-553-211800-
SOUTHWEST MARICOPA COUNTY AND PINAL COUNTY

CITY           SKY/WX    TMP DP  RH WIND       PRES   REMARKS
CASA GRANDE    NOT AVBL
GILA BEND      PTSUNNY   70  46  43 SE2       30.01R
$$

AZZ503-504-507>509-211800-
SOUTHEAST ARIZONA

CITY           SKY/WX    TMP DP  RH WIND       PRES   REMARKS
TUCSON         SUNNY     73  45  36 CALM      30.06R
DAVIS-MONTHAN  SUNNY     72  45  38 CALM      30.04R
RYAN FIELD     SUNNY     72  46  40 CALM      30.05R
NOGALES        SUNNY     70  48  45 S6        30.09R
SIERRA VISTA   SUNNY     69  39  34 W10       30.11S
DOUGLAS        SUNNY     70  43  37 W9        30.07F
$$

AZZ532-211800-
SOUTHWEST ARIZONA

CITY           SKY/WX    TMP DP  RH WIND       PRES   REMARKS
YUMA           SUNNY     75  31  19 N9        30.01R
$$

CAZ041-043-047-048-061-525>527-560>570-211800-
SOUTHERN CALIFORNIA

CITY           SKY/WX    TMP DP  RH WIND       PRES   REMARKS
DOWNTOWN L.A.  SUNNY     68  51  54 CALM      30.05R
L.A. AIRPORT   MOSUNNY   69  55  60 VRB5      30.06R
SAN DIEGO      MOSUNNY   66  52  60 CALM      30.06R
BURBANK        SUNNY     64  49  57 SW3       30.06R
ONTARIO        MOSUNNY   62  54  74 CALM      30.06R
RIVERSIDE      SUNNY     65  50  58 VRB3      30.06S
PALM SPRINGS   SUNNY     78  24  13 NW9       30.07R
EL CENTRO NAS  MOSUNNY   77  42  28 N7        30.03R
IMPERIAL       SUNNY     74  50  42 NW7       30.01R
BLYTHE         SUNNY     75  22  13 N21       30.04R
NEEDLES        SUNNY     74  15  10 N23       30.10R
$$

NVZ020-UTZ003-211800-
SOUTHERN NEVADA-UTAH

CITY           SKY/WX    TMP DP  RH WIND       PRES   REMARKS
LAS VEGAS      MOSUNNY   64  16  15 N12       30.18R
SALT LAKE CITY MOSUNNY   49  24  37 W12       30.22R
$$

NMZ009-TXZ055-211800-
NEW MEXICO-WEST TEXAS

CITY           SKY/WX    TMP DP  RH WIND       PRES   REMARKS
ALBUQUERQUE    MOSUNNY   61  32  33 NW13      30.05R
EL PASO        MOSUNNY   74  47  38 W7        30.01R
$$


........................KEY........................
SKY/WX - SKY CONDITION/WEATHER
TMP    - TEMPERATURE IN FAHRENHEIT
DP     - DEW POINT IN FAHRENHEIT
RH     - RELATIVE HUMIDITY IN PERCENT
WIND   - DIRECTION AND SPEED IN MILES PER HOUR (MPH)
VRB    - VARIABLE WIND DIRECTION
PRES   - MEAN SEA LEVEL PRESSURE IN INCHES OF MERCURY
         F - FALLING PRESSURE   R - RISING PRESSURE
         S - STEADY PRESSURE
VSB    - VISIBILITY IN MILES
HX     - HEAT INDEX IN FAHRENHEIT
WCI    - WIND CHILL INDEX IN FAHRENHEIT
TC     - TEMPERATURE IN CELSIUS WHICH IS ALSO KNOWN AS
         TEMPERATURE IN CENTIGRADE
AFB    - AIR FORCE BASE
         LUKE AFB IS LUKE AIR FORCE BASE
         DAVIS-MONTHAN IS DAVIS-MONTHAN AIR FORCE BASE
NAS    - NAVAL AIR STATION
         EL CENTRO NAS IS EL CENTRO NAVAL AIR STATION
N/A    - NOT AVAILABLE




USA.gov is the U.S. government's official web portal to all federal, state and local government web resources and services.